This is the latest recevied weather packets stored in our database for station/object VY2CRA-4. If no packets are shown the sender has not sent any weather packets the latest 10 day(s).
| Time | Temp. | Humidity | Pressure | Rain* | Wind** | Luminosity | Snow |
|---|---|---|---|---|---|---|---|
| 1777620139 | 11.67° C | 60% | 1007 hPa | 0 mm | - | - | - |
| 1777618938 | 11.67° C | 60% | 1007.2 hPa | 0 mm | - | - | - |
| 1777617737 | 11.67° C | 59% | 1007.4 hPa | 0 mm | - | - | - |
| 1777616536 | 11.67° C | 59% | 1007.7 hPa | 0 mm | - | - | - |
| 1777615335 | 11.67° C | 58% | 1007.8 hPa | 0 mm | - | - | - |
| 1777614134 | 11.67° C | 58% | 1008.3 hPa | 0 mm | - | - | - |
| 1777612933 | 11.11° C | 58% | 1008.6 hPa | 0 mm | - | - | - |
| 1777611733 | 11.11° C | 58% | 1008.4 hPa | 0 mm | - | - | - |
| 1777610531 | 11.11° C | 58% | 1008.8 hPa | 0 mm | - | - | - |
| 1777609331 | 11.11° C | 57% | 1008.9 hPa | 0 mm | - | - | - |
| 1777608130 | 11.11° C | 56% | 1009 hPa | 0 mm | - | - | - |
| 1777606929 | 11.11° C | 55% | 1009.6 hPa | 0 mm | - | - | - |
| 1777605728 | 11.11° C | 54% | 1009.7 hPa | 0 mm | - | - | - |
| 1777604527 | 11.11° C | 52% | 1009.9 hPa | 0 mm | - | - | - |
| 1777603326 | 12.78° C | 48% | 1010.6 hPa | 0 mm | - | - | - |
| 1777602125 | 12.78° C | 48% | 1011 hPa | 0 mm | - | - | - |
| 1777600924 | 12.78° C | 47% | 1011.2 hPa | 0 mm | - | - | - |
| 1777599723 | 12.78° C | 47% | 1011 hPa | 0 mm | - | - | - |
| 1777598522 | 13.33° C | 46% | 1011.1 hPa | 0 mm | - | - | - |
| 1777597321 | 12.78° C | 46% | 1011.4 hPa | 0 mm | - | - | - |
| 1777596120 | 13.33° C | 44% | 1011.2 hPa | 0 mm | - | - | - |
| 1777594919 | 13.33° C | 43% | 1011.1 hPa | 0 mm | - | - | - |
| 1777593719 | 13.89° C | 41% | 1011 hPa | 0 mm | - | - | - |
| 1777592517 | 14.44° C | 39% | 1010.9 hPa | 0 mm | - | - | - |
| 1777591317 | 15.56° C | 37% | 1011.1 hPa | 0 mm | - | - | - |
* Rain since midnight (hover to see other rain measurements)
** Current wind speed in m/s (hover to see current wind gust speed)